Location: Bruch
(44.2051°N, 0.4120°E)
Time: 05:47:38
(UTC+00:00)

USA 238 DEB - Pass Details

Date: 29 November 2020
Orbit: 996 x 1216 km, 63.4° (Epoch: 22 January)

Event Time Altitude Azimuth Distance (km) Brightness Sun altitude
Exits shadow 04:45:57 36° 228° (SW) 1,789 4.5 -25.5°
Drops below altitude 10° 04:51:42 10° 181° (S) 3,141 6.2 -24.5°
Sets 04:54:41 0° 174° (S) 4,113 6.9 -24.0°
